Weather History for Yakima, WA

Change the Weather History Date:

Thursday, February 14, 2013

  Actual Average Record
Temperature  
Mean Temperature 43 °F 36 °F  
Max Temperature 56 °F 46 °F 62 °F (1982)
Min Temperature 30 °F 26 °F 5 °F (1949)
Degree Days  
Heating Degree Days 22 29  
Month to date heating degree days 338 423  
Since 1 July heating degree days 3607 4141  
Cooling Degree Days 0 0  
Month to date cooling degree days 0 0  
Year to date cooling degree days 0 0  
Moisture  
Dew Point 29 °F    
Average Humidity 63    
Maximum Humidity 85    
Minimum Humidity 41    
Precipitation  
Precipitation 0.00 in 0.02 in 0.35 in (1986)
Month to date precipitation T 0.40  
Year to date precipitation 0.10 1.54  
Snow  
Snow 0.00 in 0.10 in 3.10 in (1986)
Month to date snowfall 0.0 1.5  
Year to date snowfall 1.1 6.8  
Since 1 July snowfall 15.3 19.8  
Snow Depth 0.00 in    
Sea Level Pressure  
Sea Level Pressure 30.48 in    
Wind  
Wind Speed 2 mph (SW)    
Max Wind Speed 8 mph    
Max Gust Speed 9 mph    
Visibility 10 miles    
Events      
T = Trace of Precipitation, MM = Missing Value Source: NWS Daily Summary

Daily Weather History Graph

Daily Weather History Graph

Search for Another Location

Airport:

Trip Planner

Search our weather history database for the weather conditions in past years. The results will help you decide how hot, cold, wet, or windy it might be!

Date:

Astronomy

Feb. 14, 2013 Rise Set
Actual Time 7:06 AM PST 5:26 PM PST
Civil Twilight 6:35 AM PST 5:57 PM PST
Nautical Twilight 6:00 AM PST 6:33 PM PST
Astronomical Twilight 5:25 AM PST 7:08 PM PST
Moon 8:51 AM PST (2/14) 10:57 PM PST (2/14)
Length of Visible Light 11h 21m
Length of Day
10h 19m
Waxing Crescent, 22% of the Moon is Illuminated
Feb 14
Waxing Crescent
Feb 17
First Quarter
Feb 25
Full
Mar 4
Last Quarter
Mar 11
New

Hourly Weather History & Observations

Time (PST) Temp. Windchill Dew Point Humidity Pressure Visibility Wind Dir Wind Speed Gust Speed Precip Events Conditions
12:53 AM 33.1 °F 30.0 °F 26.1 °F 75% 30.44 in 10.0 mi SW 3.5 mph - N/A   Clear
1:53 AM 32.0 °F 26.4 °F 25.0 °F 75% 30.46 in 10.0 mi WNW 5.8 mph - N/A   Clear
2:53 AM 32.0 °F 26.4 °F 26.1 °F 79% 30.45 in 10.0 mi West 5.8 mph - N/A   Clear
3:53 AM 33.1 °F 30.0 °F 27.0 °F 78% 30.45 in 10.0 mi WSW 3.5 mph - N/A   Clear
4:53 AM 34.0 °F 31.0 °F 28.0 °F 79% 30.46 in 10.0 mi South 3.5 mph - N/A   Partly Cloudy
5:53 AM 34.0 °F - 28.0 °F 79% 30.46 in 10.0 mi Calm Calm - N/A   Mostly Cloudy
6:53 AM 34.0 °F - 28.0 °F 79% 30.47 in 10.0 mi Calm Calm - N/A   Overcast
7:53 AM 35.1 °F - 28.9 °F 78% 30.48 in 10.0 mi Calm Calm - N/A   Overcast
8:53 AM 37.9 °F - 30.0 °F 73% 30.50 in 10.0 mi Calm Calm - N/A   Mostly Cloudy
9:53 AM 39.0 °F - 30.9 °F 73% 30.51 in 10.0 mi Calm Calm - N/A   Mostly Cloudy
10:53 AM 45.0 °F 43.5 °F 30.9 °F 58% 30.51 in 10.0 mi NNE 3.5 mph - N/A   Overcast
11:53 AM 48.9 °F - 30.9 °F 50% 30.49 in 10.0 mi Calm Calm - N/A   Scattered Clouds
12:53 PM 52.0 °F - 32.0 °F 47% 30.48 in 10.0 mi SSE 4.6 mph - N/A   Clear
1:53 PM 53.1 °F - 32.0 °F 45% 30.46 in 10.0 mi Calm Calm - N/A   Partly Cloudy
2:53 PM 55.0 °F - 32.0 °F 42% 30.47 in 10.0 mi ESE 3.5 mph - N/A   Partly Cloudy
3:53 PM 55.0 °F - 32.0 °F 42% 30.47 in 10.0 mi Calm Calm - N/A   Partly Cloudy
4:53 PM 51.1 °F - 32.0 °F 48% 30.47 in 10.0 mi South 5.8 mph - N/A   Partly Cloudy
5:53 PM 44.1 °F - 30.9 °F 60% 30.48 in 10.0 mi Calm Calm - N/A   Partly Cloudy
6:53 PM 41.0 °F - 30.0 °F 65% 30.49 in 10.0 mi Calm Calm - N/A   Clear
7:53 PM 37.9 °F 34.4 °F 28.9 °F 70% 30.49 in 10.0 mi WNW 4.6 mph - N/A   Clear
8:53 PM 35.1 °F - 28.0 °F 76% 30.50 in 10.0 mi Calm Calm - N/A   Clear
9:53 PM 33.1 °F - 28.0 °F 82% 30.53 in 10.0 mi Calm Calm - N/A   Clear
10:53 PM 30.9 °F 27.5 °F 26.1 °F 82% 30.54 in 9.0 mi West 3.5 mph - N/A   Clear
11:53 PM 33.1 °F - 28.0 °F 82% 30.55 in 10.0 mi Calm Calm - N/A   Clear